Latest Weather Observations for Roebourne Airport

IDW60801

Issued at 10:35 pm WST Friday 28 November 2014 (issued every 30 minutes, with the page automatically refreshed every 10 minutes)

About weather observations | Map of weather stations | Latest weather observations for WA | Other Formats
Station Details ID: 004090 Name: ROEBOURNE AERO Lat: -20.76 Lon: 117.16 Height: 10.7 m
Data from the previous 72 hours. | See also: Recent months at Roebourne Airport
Date/Time
WST
Temp
°C
App
Temp
°C
Dew
Point
Rel
Hum
%
Delta-T
°C
Wind Press
QNH
hPa
Press
MSL
hPa
Rain
since 9 am
mm
Dir
 
Spd
km/h
Gust
km/h
Spd
kts
Gust
kts
28/10:30pm 27.5 26.5 17.9 55 6.1 W 20 26 11 14 1009.2 1009.2 0.0
28/10:00pm 27.4 26.5 17.8 55 6.1 W 19 22 10 12 1009.4 1009.4 0.0
28/09:30pm 27.8 26.3 17.6 53 6.4 W 22 30 12 16 1009.4 1009.4 0.0
28/09:00pm 28.2 25.6 16.8 50 7.1 W 26 32 14 17 1009.2 1009.2 0.0
28/08:30pm 28.7 25.7 15.9 45 7.9 W 26 33 14 18 1009.0 1009.0 0.0
28/08:00pm 29.3 25.1 16.1 44 8.2 W 33 43 18 23 1009.0 1009.0 0.0
28/07:30pm 29.6 26.2 17.8 49 7.5 W 32 39 17 21 1008.6 1008.6 0.0
28/07:00pm 30.8 28.1 15.6 39 9.4 W 24 30 13 16 1008.4 1008.4 0.0
28/06:30pm 31.8 28.2 15.3 37 10.2 WNW 28 39 15 21 1008.1 1008.1 0.0
28/06:00pm 32.6 29.5 18.4 43 9.2 WNW 32 39 17 21 1007.8 1007.8 0.0
28/05:30pm 33.6 28.8 15.6 34 11.3 WNW 35 44 19 24 1007.5 1007.5 0.0
28/05:00pm 35.0 30.1 15.3 30 12.3 WNW 35 41 19 22 1007.2 1007.2 0.0
28/04:30pm 35.6 32.2 17.8 35 11.5 WNW 32 41 17 22 1006.9 1006.9 0.0
28/04:00pm 36.4 33.3 17.5 32 12.3 NW 30 37 16 20 1007.0 1007.0 0.0
28/03:30pm 37.1 34.8 17.6 31 12.7 WNW 26 33 14 18 1007.0 1007.0 0.0
28/03:00pm 36.6 33.8 17.2 31 12.5 NW 28 43 15 23 1007.2 1007.2 0.0
28/02:30pm 36.3 33.9 17.4 32 12.2 NW 26 35 14 19 1007.6 1007.6 0.0
28/02:00pm 37.2 35.7 17.7 31 12.7 NW 22 32 12 17 1008.0 1008.0 0.0
28/01:30pm 37.1 34.9 18.6 33 12.2 NNW 28 39 15 21 1008.4 1008.4 0.0
28/01:00pm 36.8 34.3 18.8 34 11.9 N 30 39 16 21 1008.6 1008.6 0.0
28/12:30pm 36.7 34.1 17.8 32 12.3 N 28 35 15 19 1008.8 1008.8 0.0
28/12:00pm 36.6 35.3 18.2 34 12.1 N 22 32 12 17 1009.1 1009.1 0.0
28/11:30am 36.9 34.6 18.4 33 12.1 N 28 35 15 19 1009.4 1009.4 0.0
28/11:00am 36.8 38.3 19.7 36 11.4 NNE 11 20 6 11 1009.7 1009.7 0.0
28/10:30am 35.3 36.0 16.1 32 12.2 NNE 7 11 4 6 1010.1 1010.1 0.0
28/10:00am 35.0 35.4 16.3 32 11.9 SE 9 17 5 9 1010.3 1010.3 0.0
28/09:30am 34.2 34.9 17.0 36 11.0 S 9 17 5 9 1010.6 1010.6 0.0
28/09:00am 33.2 33.7 17.4 39 10.1 WSW 11 22 6 12 1010.9 1010.9 0.0
28/08:30am 32.4 33.6 18.2 42 9.2 SSW 9 19 5 10 1010.9 1010.9 0.0
28/08:00am 31.6 32.2 18.6 46 8.4 S 13 17 7 9 1011.0 1011.0 0.0
28/07:30am 30.7 31.4 18.8 49 7.7 SSW 13 19 7 10 1011.0 1011.0 0.0
28/07:00am 29.2 30.7 18.9 53 6.7 S 9 13 5 7 1011.1 1011.1 0.0
28/06:30am 27.5 30.4 19.0 59 5.5 WSW 2 6 1 3 1010.6 1010.6 0.0
28/06:00am 25.1 28.1 18.5 67 4.2 CALM 0 0 0 0 1010.4 1010.4 0.0
28/05:30am 24.4 26.5 18.1 68 4.0 SSW 4 6 2 3 1010.0 1010.0 0.0
28/05:00am 24.5 26.6 18.2 68 4.0 ESE 4 6 2 3 1009.8 1009.8 0.0
28/04:30am 24.7 25.5 18.2 67 4.1 S 11 13 6 7 1009.8 1009.8 0.0
28/04:00am 25.0 26.3 18.4 66 4.2 S 9 11 5 6 1009.5 1009.5 0.0
28/03:30am 25.6 26.3 18.8 66 4.3 SSW 13 19 7 10 1009.3 1009.3 0.0
28/03:00am 26.4 26.4 19.0 63 4.8 SW 17 19 9 10 1009.0 1009.0 0.0
28/02:30am 26.8 27.7 19.2 63 4.9 WSW 13 17 7 9 1009.2 1009.2 0.0
28/02:00am 27.0 27.2 19.4 63 4.9 SW 17 22 9 12 1009.3 1009.3 0.0
28/01:30am 27.0 27.7 19.6 64 4.8 SW 15 20 8 11 1009.3 1009.3 0.0
28/01:00am 27.1 27.9 19.9 64 4.7 SW 15 17 8 9 1009.5 1009.5 0.0
28/12:30am 27.3 28.2 20.1 64 4.7 SW 15 20 8 11 1009.8 1009.8 0.0
28/12:00am 27.6 28.2 20.2 64 4.9 WSW 17 26 9 14 1009.9 1009.9 0.0
 
Date/Time
WST
Temp
°C
App
Temp
°C
Dew
Point
Rel
Hum
%
Delta-T
°C
Wind Press
QNH
hPa
Press
MSL
hPa
Rain
since 9 am
mm
Dir
 
Spd
km/h
Gust
km/h
Spd
kts
Gust
kts
27/11:30pm 27.7 28.3 20.3 64 4.9 WSW 17 20 9 11 1010.2 1010.2 0.0
27/11:00pm 27.8 28.2 20.6 65 4.8 WSW 19 24 10 13 1010.4 1010.4 0.0
27/10:30pm 28.0 28.3 20.8 65 4.8 WSW 20 30 11 16 1010.5 1010.5 0.0
27/10:00pm 28.1 28.6 21.1 65 4.7 WSW 20 28 11 15 1010.5 1010.5 0.0
27/09:30pm 28.0 28.1 21.8 69 4.2 WSW 24 32 13 17 1010.3 1010.3 0.0
27/09:00pm 28.2 28.6 22.4 71 3.9 W 24 32 13 17 1010.2 1010.2 0.0
27/08:30pm 28.6 28.8 22.1 68 4.4 W 24 32 13 17 1010.1 1010.1 0.0
27/08:00pm 28.9 29.7 22.4 68 4.4 W 22 28 12 15 1009.8 1009.8 0.0
27/07:30pm 29.0 29.2 22.0 66 4.7 WNW 24 32 13 17 1009.4 1009.4 0.0
27/07:00pm 29.8 30.2 21.7 61 5.5 WNW 22 28 12 15 1009.0 1009.0 0.0
27/06:30pm 29.9 30.5 21.3 60 5.8 NW 20 28 11 15 1008.4 1008.4 0.0
27/06:00pm 30.9 30.6 21.1 56 6.6 NW 24 32 13 17 1008.0 1008.0 0.0
27/05:30pm 31.9 31.3 20.5 51 7.6 NNW 24 32 13 17 1007.6 1007.6 0.0
27/05:00pm 32.9 31.9 19.7 45 8.7 NNW 24 30 13 16 1007.4 1007.4 0.0
27/04:30pm 32.8 30.6 18.6 43 9.2 NNW 28 35 15 19 1007.4 1007.4 0.0
27/04:00pm 33.3 30.5 19.0 42 9.4 N 32 39 17 21 1007.7 1007.7 0.0
27/03:30pm 33.6 31.0 20.0 44 9.0 N 33 39 18 21 1008.0 1008.0 0.0
27/03:00pm 34.4 31.9 18.8 39 10.2 NNW 30 35 16 19 1008.1 1008.1 0.0
27/02:30pm 35.9 33.4 18.9 36 11.2 N 30 41 16 22 1008.3 1008.3 0.0
27/02:00pm 34.9 32.4 18.9 39 10.5 N 30 39 16 21 1008.6 1008.6 0.0
27/01:30pm 35.2 33.4 19.6 40 10.4 N 28 35 15 19 1008.9 1008.9 0.0
27/01:00pm 34.7 33.8 20.6 43 9.5 N 26 39 14 21 1009.2 1009.2 0.0
27/12:30pm 35.4 33.7 19.7 39 10.4 N 28 35 15 19 1009.4 1009.4 0.0
27/12:00pm 33.9 32.6 19.9 43 9.3 NNE 26 35 14 19 1009.5 1009.5 0.0
27/11:30am 35.3 33.7 19.2 38 10.6 NNE 26 35 14 19 1009.7 1009.7 0.0
27/11:00am 35.0 33.9 18.6 38 10.7 NE 22 33 12 18 1009.9 1009.9 0.0
27/10:30am 34.4 33.8 18.8 39 10.2 ENE 20 32 11 17 1010.1 1010.1 0.0
27/10:00am 33.7 32.4 18.2 39 10.1 ENE 22 32 12 17 1010.4 1010.4 0.0
27/09:30am 33.7 31.9 17.8 38 10.3 ENE 24 37 13 20 1010.7 1010.7 0.0
27/09:00am 32.9 30.7 17.9 41 9.7 E 26 35 14 19 1010.8 1010.8 0.0
27/08:30am 31.8 29.9 17.7 43 9.0 E 24 35 13 19 1010.7 1010.7 0.0
27/08:00am 30.8 27.7 17.5 45 8.5 E 30 37 16 20 1010.5 1010.5 0.0
27/07:30am 30.3 27.3 17.7 46 8.0 ESE 30 39 16 21 1010.4 1010.4 0.0
27/07:00am 29.1 25.2 17.0 48 7.6 E 33 43 18 23 1010.2 1010.2 0.0
27/06:56am 29.2 25.4 17.1 48 7.6 E 33 39 18 21 1010.1 1010.1 0.0
27/06:30am 27.9 28.5 18.6 57 6.0 E 13 20 7 11 1010.1 1010.1 0.0
27/06:00am 25.7 26.3 17.6 61 5.1 S 11 15 6 8 1009.8 1009.8 0.0
27/05:30am 25.5 26.7 17.4 61 5.1 WSW 7 11 4 6 1009.5 1009.5 0.0
27/05:00am 25.7 26.4 17.9 62 4.9 W 11 15 6 8 1009.0 1009.0 0.0
27/04:30am 25.3 26.5 18.2 64 4.5 W 9 11 5 6 1008.7 1008.7 0.0
27/04:00am 25.4 27.8 18.8 67 4.2 SW 4 7 2 4 1008.6 1008.6 0.0
27/03:30am 25.3 26.7 18.7 67 4.2 SSW 9 9 5 5 1008.5 1008.5 0.0
27/03:00am 25.8 27.1 19.2 67 4.2 SW 11 13 6 7 1008.4 1008.4 0.0
27/02:30am 26.2 27.1 19.3 65 4.4 SW 13 17 7 9 1008.2 1008.2 0.0
27/02:00am 26.7 27.0 19.6 65 4.6 WSW 17 20 9 11 1008.2 1008.2 0.0
27/01:30am 26.8 26.8 19.7 65 4.6 SW 19 24 10 13 1008.1 1008.1 0.0
27/01:00am 27.0 27.2 20.1 66 4.5 SW 19 24 10 13 1008.2 1008.2 0.0
27/12:30am 27.1 27.3 20.2 66 4.5 WSW 19 24 10 13 1008.3 1008.3 0.0
27/12:00am 27.3 28.0 20.4 66 4.5 W 17 22 9 12 1008.4 1008.4 0.0
 
Date/Time
WST
Temp
°C
App
Temp
°C
Dew
Point
Rel
Hum
%
Delta-T
°C
Wind Press
QNH
hPa
Press
MSL
hPa
Rain
since 9 am
mm
Dir
 
Spd
km/h
Gust
km/h
Spd
kts
Gust
kts
26/11:30pm 27.3 28.1 20.6 67 4.4 W 17 20 9 11 1008.6 1008.6 0.0
26/11:00pm 27.3 27.7 20.6 67 4.4 W 19 26 10 14 1008.7 1008.7 0.0
26/10:30pm 27.5 28.6 21.3 69 4.1 W 17 26 9 14 1008.7 1008.7 0.0
26/10:00pm 27.4 28.4 21.0 68 4.2 W 17 22 9 12 1008.5 1008.5 0.0
26/09:30pm 27.6 28.3 21.2 68 4.3 W 19 24 10 13 1008.2 1008.2 0.0
26/09:00pm 27.8 28.5 21.6 69 4.2 W 20 28 11 15 1008.1 1008.1 0.0
26/08:30pm 28.4 29.0 21.4 66 4.7 W 20 26 11 14 1008.0 1008.0 0.0
26/08:00pm 28.8 29.4 21.0 62 5.2 W 19 26 10 14 1007.7 1007.7 0.0
26/07:30pm 29.0 29.4 21.0 62 5.3 W 20 26 11 14 1007.5 1007.5 0.0
26/07:00pm 29.3 29.7 21.0 61 5.5 WNW 20 24 11 13 1007.4 1007.4 0.0
26/06:30pm 30.0 29.9 20.8 57 6.1 WNW 22 30 12 16 1006.9 1006.9 0.0
26/06:00pm 30.7 29.3 19.7 52 7.2 NW 26 32 14 17 1006.7 1006.7 0.0
26/05:30pm 31.5 29.7 19.5 49 7.9 NW 28 35 15 19 1006.5 1006.5 0.0
26/05:00pm 32.4 30.3 18.9 44 8.8 NW 28 35 15 19 1006.5 1006.5 0.0
26/04:30pm 33.5 31.5 18.4 40 9.8 NNW 26 33 14 18 1006.5 1006.5 0.0
26/04:00pm 33.3 30.4 17.9 40 10.0 NNW 30 39 16 21 1006.6 1006.6 0.0
26/03:30pm 34.3 32.1 18.8 40 10.2 NNW 28 35 15 19 1006.7 1006.7 0.0
26/03:00pm 34.1 30.9 18.2 39 10.3 N 32 39 17 21 1006.9 1006.9 0.0
26/02:30pm 34.9 31.6 18.0 36 11.0 N 32 43 17 23 1007.1 1007.1 0.0
26/02:00pm 35.7 31.4 16.9 32 12.1 N 35 44 19 24 1007.3 1007.3 0.0
26/01:30pm 34.8 30.8 16.6 33 11.6 N 33 41 18 22 1007.5 1007.5 0.0
26/01:00pm 35.4 32.0 16.7 33 12.0 NNE 30 39 16 21 1007.7 1007.7 0.0
26/12:30pm 35.3 32.6 16.6 33 11.9 NNE 26 35 14 19 1008.0 1008.0 0.0
26/12:00pm 34.6 32.8 17.8 37 10.9 NNE 24 32 13 17 1008.5 1008.5 0.0
26/11:30am 33.4 31.4 17.5 38 10.2 NNE 24 32 13 17 1009.0 1009.0 0.0
26/11:00am 33.8 32.4 17.9 38 10.3 NNE 22 32 12 17 1009.4 1009.4 0.0
26/10:30am 32.9 31.2 17.1 39 10.1 NNE 22 28 12 15 1009.9 1009.9 0.0
26/10:00am 32.6 30.7 16.8 38 10.0 NE 22 32 12 17 1010.1 1010.1 0.0
26/09:30am 32.7 30.0 16.5 37 10.2 NE 26 35 14 19 1010.2 1010.2 0.0
26/09:00am 32.1 29.9 16.8 40 9.7 NE 24 30 13 16 1010.5 1010.5 0.0
26/08:30am 31.4 29.3 16.2 40 9.5 ENE 22 33 12 18 1010.5 1010.5 0.0
26/08:00am 31.1 29.8 16.7 42 9.1 ENE 19 26 10 14 1010.5 1010.5 0.0
26/07:30am 30.3 30.0 17.4 46 8.2 E 15 20 8 11 1010.4 1010.4 0.0
26/07:00am 29.1 28.0 17.3 49 7.5 ESE 19 24 10 13 1010.5 1010.5 0.0
26/06:30am 28.2 27.7 17.7 53 6.6 E 17 22 9 12 1010.5 1010.5 0.0
26/06:00am 27.2 26.5 18.2 58 5.7 E 19 26 10 14 1010.2 1010.2 0.0
26/05:30am 27.1 25.4 18.1 58 5.7 E 24 32 13 17 1010.0 1010.0 0.0
26/05:00am 27.4 25.1 18.4 58 5.7 E 28 37 15 20 1009.5 1009.5 0.0
26/04:30am 27.4 25.8 18.4 58 5.7 E 24 33 13 18 1009.3 1009.3 0.0
26/04:00am 27.6 26.6 18.9 59 5.6 E 22 32 12 17 1009.1 1009.1 0.0
26/03:30am 29.0 26.2 18.1 51 7.0 ESE 30 44 16 24 1008.7 1008.7 0.0
26/03:25am 29.2 26.7 18.0 51 7.1 SE 28 37 15 20 1008.7 1008.7 0.0
26/03:00am 27.2 28.4 19.0 61 5.3 S 11 15 6 8 1008.8 1008.8 0.0
26/02:30am 27.0 28.4 19.6 64 4.8 SW 11 15 6 8 1008.6 1008.6 0.0
26/02:00am 26.4 28.2 20.3 69 4.0 SSW 11 13 6 7 1009.0 1009.0 0.0
26/01:30am 26.3 27.1 20.6 71 3.7 W 17 24 9 13 1008.1 1008.1 0.0
26/01:00am 26.4 26.7 20.7 71 3.8 W 20 26 11 14 1007.8 1007.8 0.0
26/12:30am 26.5 27.4 20.8 71 3.8 W 17 20 9 11 1008.1 1008.1 0.0
26/12:00am 26.5 27.4 20.8 71 3.8 W 17 22 9 12 1008.1 1008.1 0.0
 
Date/Time
WST
Temp
°C
App
Temp
°C
Dew
Point
Rel
Hum
%
Delta-T
°C
Wind Press
QNH
hPa
Press
MSL
hPa
Rain
since 9 am
mm
Dir
 
Spd
km/h
Gust
km/h
Spd
kts
Gust
kts
25/11:30pm 26.8 26.6 20.6 69 4.1 W 22 30 12 16 1008.3 1008.3 0.0
25/11:00pm 27.1 26.1 20.4 66 4.4 W 26 33 14 18 1008.3 1008.3 0.0

Other Formats:

Comma delimited format used in spreadsheet applications
http://www.bom.gov.au/fwo/IDW60801/IDW60801.94308.axf

JavaScript Object Notation format (JSON) in row-major order
http://www.bom.gov.au/fwo/IDW60801/IDW60801.94308.json